GW5350 Weather Reports


time (UTC)temp
F
wind
direction
speed
knots
gust
knots
rain 1hr
in
rain 24hr
in
rain mn
in
humidity
%
barometer
mb
20260505032311 86 122 0.0 0.9 0.00 0.00 0.00 61 986.0
20260505031811 86 145 0.9 0.9 0.00 0.00 0.00 61 985.0
20260505031311 85 93 0.0 0.9 0.00 0.00 0.00 62 985.0
20260505030811 85 135 0.0 0.0 0.00 0.00 0.00 62 985.0
20260505030311 85 128 0.0 0.0 0.00 0.00 0.00 63 985.0
20260505025811 86 181 0.9 0.9 0.00 0.00 0.00 62 985.0
20260505025312 85 165 0.0 0.9 0.00 0.00 0.00 63 985.0
20260505024811 84 113 0.0 0.0 0.00 0.00 0.00 65 985.0
20260505024311 85 120 0.0 0.9 0.00 0.00 0.00 66 985.0
20260505023811 84 50 0.9 0.9 0.00 0.00 0.00 66 985.0
20260505023311 83 126 0.0 0.0 0.00 0.00 0.00 68 985.0
20260505022812 83 126 0.0 0.0 0.00 0.00 0.00 69 985.0
20260505022311 83 136 0.0 0.0 0.00 0.00 0.00 70 985.0
20260505021812 82 124 0.0 0.0 0.00 0.00 0.00 72 985.0
20260505021311 82 127 0.0 0.0 0.00 0.00 0.00 72 985.0
20260505020811 81 132 0.0 0.0 0.00 0.00 0.00 72 985.0
20260505020311 81 117 0.0 0.9 0.00 0.00 0.00 73 985.0
20260505015811 81 128 0.0 0.0 0.00 0.00 0.00 73 985.0
20260505015312 81 122 0.0 0.0 0.00 0.00 0.00 74 985.0
20260505014811 80 121 0.0 0.0 0.00 0.00 0.00 74 985.0
20260505014312 80 137 0.0 0.0 0.00 0.00 0.00 75 985.0
20260505013812 80 146 0.0 0.9 0.00 0.00 0.00 75 985.0
20260505013311 80 172 0.0 0.0 0.00 0.00 0.00 75 985.0
20260505012811 79 140 0.0 0.0 0.00 0.00 0.00 75 985.0
20260505012312 79 91 0.9 0.9 0.00 0.00 0.00 76 985.0
20260505011815 79 69 0.0 0.9 0.00 0.00 0.00 76 985.0
20260505011312 79 114 0.0 0.0 0.00 0.00 0.00 76 985.0
20260505010811 79 126 0.0 0.0 0.00 0.00 0.00 76 985.0
20260505010312 79 124 0.0 0.0 0.00 0.00 0.00 77 985.0
20260505005811 79 122 0.0 0.0 0.00 0.00 0.00 77 985.0
20260505005311 79 62 0.9 0.9 0.00 0.00 0.00 77 985.0
20260505004811 78 123 0.0 0.0 0.00 0.00 0.00 77 985.0
20260505004311 78 121 0.0 0.0 0.00 0.00 0.00 77 985.0
20260505003813 78 130 0.0 0.0 0.00 0.00 0.00 78 985.0
20260505003314 78 124 0.0 0.0 0.00 0.00 0.00 78 985.0
20260505002811 79 130 0.0 0.0 0.00 0.00 0.00 78 985.0
20260504172811 81 132 0.0 0.0 0.00 0.00 0.08 70 986.0
20260504172314 81 122 0.0 0.0 0.00 0.00 0.08 69 986.0
20260504171812 80 88 1.7 1.7 0.00 0.00 0.08 70 986.0
20260504171312 80 112 1.7 2.6 0.00 0.00 0.08 70 986.0
20260504170811 80 37 6.1 8.7 0.00 0.00 0.08 70 986.0
20260504170312 80 104 2.6 3.5 0.00 0.00 0.08 70 986.0
20260504160313 81 204 0.9 0.9 0.00 0.00 0.08 68 985.0
20260504150812 84 124 1.7 3.5 0.00 0.00 0.08 65 984.0
20260504150315 84 118 1.7 1.7 0.00 0.00 0.08 65 984.0
20260504141315 84 110 0.9 0.9 0.00 0.00 0.08 63 983.0
20260504140815 84 116 0.0 0.0 0.00 0.00 0.08 63 983.0
20260504140312 84 117 0.0 0.0 0.00 0.00 0.08 64 983.0
20260504130815 86 147 0.0 0.9 0.00 0.00 0.08 60 982.0
20260504130315 86 221 0.9 0.9 0.00 0.00 0.08 59 981.0
20260504120312 87 111 0.9 0.9 0.00 0.00 0.08 54 981.0
20260504110311 86 129 5.2 7.8 0.00 0.00 0.08 66 981.0
20260504100312 98 114 0.0 0.0 0.00 0.00 0.08 52 980.0
20260504081812 95 183 2.6 2.6 0.00 0.00 0.08 59 982.0
20260504081311 95 165 1.7 1.7 0.00 0.00 0.08 59 982.0
20260504080811 94 125 1.7 2.6 0.00 0.00 0.08 60 982.0
20260504080312 94 156 1.7 2.6 0.00 0.00 0.08 61 982.0
20260504070311 93 134 1.7 1.7 0.00 0.00 0.08 63 983.0
20260504050311 91 144 1.7 1.7 0.00 0.00 0.08 58 985.0
20260504045811 91 117 0.0 0.9 0.00 0.00 0.08 57 985.0
20260504045312 89 160 0.9 0.9 0.00 0.00 0.08 61 985.0
20260504044811 89 179 1.7 1.7 0.00 0.00 0.08 60 985.0
20260504044311 89 155 0.9 0.9 0.00 0.00 0.08 62 985.0
20260504043811 88 168 1.7 1.7 0.00 0.00 0.08 62 985.0
20260504043311 88 128 0.0 0.0 0.00 0.00 0.08 64 985.0
20260504042811 87 179 0.9 0.9 0.00 0.00 0.08 64 985.0
20260504042312 86 120 0.0 0.0 0.00 0.00 0.08 65 985.0
20260504041812 86 118 0.0 0.0 0.00 0.00 0.08 66 985.0
20260504041311 86 119 0.0 0.0 0.00 0.00 0.08 67 985.0
20260504040811 86 135 0.9 1.7 0.00 0.00 0.08 66 985.0
20260504040311 86 191 0.9 0.9 0.00 0.00 0.08 65 985.0
20260504035811 86 115 0.9 1.7 0.00 0.00 0.08 67 985.0
20260504035312 85 162 1.7 1.7 0.00 0.00 0.08 68 985.0
20260504034811 85 198 0.9 1.7 0.00 0.00 0.08 68 986.0
20260504034312 86 159 0.9 1.7 0.00 0.00 0.08 66 986.0
20260504033811 85 153 2.6 2.6 0.00 0.00 0.08 67 985.0
20260504033312 85 162 0.9 0.9 0.00 0.00 0.08 70 985.0
20260504032812 85 161 0.9 0.9 0.00 0.00 0.08 68 985.0